Location: Bamobli
(6.6379°N, 10.9396°W)
Time: 22:38:44
(UTC+00:00)

N. Korean satellite - Pass Details

Date: 07 March 2021
Orbit: 453 x 499 km, 97.2° (Epoch: 12 April)

Event Time Altitude Azimuth Distance (km) Brightness Sun altitude
Rises 05:21:30 0° 26° (NNE) 2,551 10.5 -23.7°
Reaches altitude 10° 05:23:43 10° 37° (NE) 1,679 9.7 -23.2°
Maximum altitude 05:26:57 31° 100° (E) 896 8.5 -22.4°
Drops below altitude 10° 05:30:12 10° 163° (SSE) 1,696 9.5 -21.6°
Sets 05:32:27 0° 174° (S) 2,582 10.4 -21.0°
